sat.trackr.live / text

‹ back to catalog

STARLINK-34182

NORAD 64013 · 2025-101V

PAYLOAD ACTIVE UNKNOWN

§ Identity

Operator
Country
US
Launch date
2025-05-14
Launch site
AFETR
Launch vehicle
Mass (kg)
RCS (m²)

Purposes: comms

External: N2YO · Heavens-Above · Gunter

§ Orbital elements

Epoch: 2026-05-24T17:54:00.005760Z

Period
94.27 min
Inclination
43.0008°
Eccentricity
0.0001113
Mean motion
15.27590232 rev/d
Perigee alt
482.3 km
Apogee alt
483.8 km
Semi-major
6,861.2 km
B*
6.0150e-4
RAAN
285.2694°
Arg perigee
274.9092°
Mean anomaly
85.1632°
Rev number
5,872

§ Raw data

STARLINK-341821 64013U 25101V   26144.74583340  .00016332  00000+0  60150-3 0  99932 64013  43.0008 285.2694 0001113 274.9092  85.1632 15.27590232 58729

JSON: /api/v1/satellites/64013 · /tle

For live sub-satellite position, see the globe view (requires WebGL).

§ Visibility from observer

Set your observer location to see the next 7 days of passes ≥ 10°. The values pass through the URL so the page stays shareable.

No JS? Fill the form by hand. The geolocation button needs JavaScript.